TimeCST,TemperatureF,Dew PointF,Humidity,Sea Level PressureIn,VisibilityMPH,Wind Direction,Wind SpeedMPH,Gust SpeedMPH,PrecipitationIn,Events,Conditions,WindDirDegrees,DateUTC
12:53 AM,46.0,21.9,39,30.01,-9999.0,Calm,Calm,-,N/A,,Clear,0,2012-12-04 06:53:00
1:53 AM,41.0,21.9,47,30.04,-9999.0,North,5.8,-,N/A,,Clear,360,2012-12-04 07:53:00
2:53 AM,41.0,23.0,49,30.05,-9999.0,NNW,8.1,-,N/A,,Clear,330,2012-12-04 08:53:00
3:53 AM,41.0,25.0,53,30.06,-9999.0,North,8.1,-,N/A,,Clear,360,2012-12-04 09:53:00
4:53 AM,43.0,28.0,56,30.09,-9999.0,NNW,6.9,-,N/A,,Clear,330,2012-12-04 10:53:00
5:53 AM,44.1,28.9,55,30.13,-9999.0,North,9.2,-,N/A,,Clear,350,2012-12-04 11:53:00
6:53 AM,42.1,30.0,62,30.18,-9999.0,North,9.2,-,N/A,,Clear,360,2012-12-04 12:53:00
7:53 AM,43.0,30.9,62,30.23,-9999.0,North,10.4,-,N/A,,Clear,350,2012-12-04 13:53:00
8:53 AM,48.0,32.0,54,30.27,10.0,North,10.4,-,N/A,,Clear,360,2012-12-04 14:53:00
9:53 AM,53.1,34.0,48,30.29,10.0,NNE,11.5,-,N/A,,Clear,20,2012-12-04 15:53:00
10:53 AM,57.9,35.1,42,30.31,10.0,NNE,6.9,-,N/A,,Clear,20,2012-12-04 16:53:00
11:53 AM,62.1,35.1,37,30.30,10.0,NNE,8.1,-,N/A,,Clear,20,2012-12-04 17:53:00
12:53 PM,63.0,35.1,35,30.27,10.0,NNW,3.5,-,N/A,,Clear,340,2012-12-04 18:53:00
1:53 PM,66.0,34.0,30,30.26,10.0,North,6.9,-,N/A,,Clear,350,2012-12-04 19:53:00
2:53 PM,66.9,34.0,30,30.23,10.0,NNE,8.1,-,N/A,,Clear,20,2012-12-04 20:53:00
3:53 PM,66.0,33.1,29,30.23,10.0,North,5.8,-,N/A,,Clear,360,2012-12-04 21:53:00
4:53 PM,66.0,33.1,29,30.23,10.0,NE,8.1,-,N/A,,Clear,40,2012-12-04 22:53:00
5:53 PM,60.1,33.1,36,30.25,10.0,NNE,4.6,-,N/A,,Clear,30,2012-12-04 23:53:00
6:53 PM,55.9,32.0,40,30.26,10.0,ENE,6.9,-,N/A,,Clear,70,2012-12-05 00:53:00
7:53 PM,53.1,32.0,45,30.27,10.0,East,5.8,-,N/A,,Clear,90,2012-12-05 01:53:00
8:53 PM,50.0,32.0,50,30.27,10.0,ESE,4.6,-,N/A,,Clear,120,2012-12-05 02:53:00
9:53 PM,48.0,32.0,54,30.27,10.0,East,4.6,-,N/A,,Clear,100,2012-12-05 03:53:00
10:53 PM,42.1,28.9,60,30.28,10.0,WNW,8.1,-,N/A,,Clear,300,2012-12-05 04:53:00
11:53 PM,39.9,28.0,63,30.28,10.0,NNW,5.8,-,N/A,,Clear,340,2012-12-05 05:53:00